Home > Time Zones > World Clock > Weather > Ghana > Accra > Past weeks

Flag for Ghana Weather past 2 weeks in Accra, Ghana

Now
84 °F

Clear.


Feels Like: 94 °F
Forecast: N/A
Wind: 14 mph from Southwest

Location: Accra Airport


UV Index: N/A

Visibility: 10 mi


Pressure: 29.77 "Hg

Humidity: 79%

Dew point: 77 °F

Location of AccraLocation

Historic Weather in Accra

°F

Accra temperature yesterday

Maximum temperature yesterday: 88 °F (at 10:56 AM)
Minimum temperature yesterday: 79 °F (at 1:58 AM)
Average temperature yesterday: 83 °F

Past Weeks' High & Low Weather Summary

 TemperatureHumidityPressure
High90 °F (Apr 16, 11:00 AM)94% (Apr 2, 2:55 AM)30.12 "Hg (Apr 2, 2:55 AM)
Low73 °F (Apr 10, 10:55 AM)62% (Apr 12, 1:55 PM)29.74 "Hg (Apr 10, 2:54 PM)
Average82 °F82%29.85 "Hg
* Reported Apr 1 7:53 PM — Apr 16 7:00 PM, Accra, Weather by CustomWeather, © 2014

Note: Actual official high and low records may vary slightly from our data, if they occured in-between our weather recording intervals... More about our weather records

Advertising

Historic Weather Conditions — Data for Previous 24 hours

 ConditionsComfort  
Time TempWeatherWind HumidityBarometerVisibility
7:00 PM
Apr 16
84 °FClear.14 mph79%29.77 "Hg10 mi
6:00 PM84 °FScattered clouds.15 mph79%29.77 "HgN/A
5:00 PM86 °FSunny.15 mph75%29.74 "Hg10 mi
3:54 PM88 °FSunny.17 mph66%29.74 "Hg10 mi
2:54 PM88 °FPassing clouds.15 mph70%29.77 "HgN/A
1:56 PM88 °FSunny.14 mph66%29.77 "Hg10 mi
12:55 PM88 °FSunny.17 mph70%29.80 "Hg10 mi
11:57 AM90 °FPassing clouds.10 mph63%29.86 "HgN/A
11:00 AM90 °FSunny.12 mph63%29.86 "Hg10 mi
9:54 AM88 °FScattered clouds.9 mph66%29.89 "HgN/A
8:58 AM86 °FScattered clouds.8 mph70%29.89 "HgN/A
8:00 AM84 °FSunny.6 mph79%29.89 "Hg10 mi
6:52 AM81 °FSunny.5 mph89%29.86 "Hg10 mi
5:54 AM79 °FPassing clouds.6 mph89%29.83 "HgN/A
4:56 AM79 °FClear.7 mph89%29.83 "Hg10 mi
4:00 AM79 °FClear.6 mph89%29.83 "Hg10 mi
2:55 AM79 °FClear.5 mph89%29.83 "Hg10 mi
1:52 AM81 °FClear.5 mph84%29.83 "Hg10 mi
12:52 AM82 °FClear.5 mph84%29.86 "Hg10 mi
11:51 PM
Apr 15
82 °FClear.5 mph84%29.86 "Hg10 mi
10:53 PM82 °FClear.3 mph84%29.89 "Hg10 mi
9:54 PM82 °FClear.6 mph79%29.95 "Hg10 mi
8:55 PM82 °FClear.7 mph84%29.83 "Hg10 mi
Weather by CustomWeather, © 2014

See weather overview